7 * 24
多渠道服务支持
STARLINK-32469是美国SpaceX公司星链卫星互联网项目中的一颗卫星,于2024年10月30日发射升空。它属于SpaceX批量发射的星链组网卫星,星链项目旨在构建全球卫星互联网,可为偏远地区提供高速网络接入,这颗卫星入轨进一步完善了星链低轨星座的全球覆盖能力,助力SpaceX推进全球无缝互联的卫星网络布局,巩固了其商业航天领域的领先地位。
美国
(US)
| 数据来源 | 国际轨道数据 |
| 星历时间: | 2026-09-11T18:07:16+0800 16小时前 查看轨道信息 |
| 半长轴: | 6840.93km |
| 偏心率: | 0.0001218 |
| 轨道倾角: | 53.160° |
| 近地点辐角 | 64.065° |
| 升交点赤经 | 316.464° |
| 平近点角 | 296.048° |
| 近地点: | 461.959km |
| 远地点: | 463.627km |
| 周期: | 93.850分钟 |
| 每日圈数: | 15.343699 |